DELTA 1 DEB, 4841

Orbit data source: Space-Track

DELTA 1 DEB, 4841 is space debris originally from a launch on Thu, 04 Jul 1968 UTC launched from the Air Force Western Test Range (AFWTR). Debris objects in space refer to the collection of defunct objects orbiting the Earth. Examples of debris include non-operational satellites, rocket bodies, and fragments generated from explosions, collisions, or faulty payload assembly.

Loading next visibility...
Identifier
4841, 1968-055D
Orbit
Active
Last TLE update
23 hours ago
Origin
Manufacturer
Unknown
Mission
Spacecraft
Bus & Motor
Unknown
Mass
Unknown
Launch date (UTC)
1968-07-04 (57 years ago)
Launch vehicle
Unknown
Launch site
Air Force Western Test Range (AFWTR)
Object type
Payload
Rocket body
Debris
Shape & HBR
Unknown
Radar Cross Section
Small (<0.1 m²)

Expand to show TLE details & history

TLE from 23 hours ago
0 DELTA 1 DEB
1 04841U 68055D   25183.57243991  .00000109  00000-0  21123-3 0  9992
2 04841 120.7320 105.7011 2697620  66.0809   8.0198  9.29160929102949
Epoch: 2025-07-02T13:44Z
TLE epoch observation values (Epoch: 2025-07-02T13:44:18.808Z)
Latitude
58.11134°
Longitude
-93.06035°
Altitude
655.953 km
Speed
8.476 km/s
True Right ascension
02h 15m 28s
True Declination
57° 57' 17"
Sunlit
Object was in daylight at epoch
Visualization orbit readout
Latitude
-43.75226°
Longitude
14.66489°
Altitude
3,873.007 km
Speed
6.011 km/s
Apparent Right ascension
10h 28m 14s
Apparent Declination
-43° 46' 13"
Sunlit
Object is in daylight
Visualization observer readout
Local Sidereal Time
00:03:25
Azimuth
110.098° ESE
Elevation
-71.927°
Doppler factor
1
Orbital elements
Apogee altitude
5,756.825 km
Perigee altitude
600.659 km
Semi-major axis
9,556.879 km
Eccentricity
0.26976
Inclination
120.732°
RAAN
105.7011°
Arg. of periapsis
66.0809°
True anomaly
Unknown
Mean anomaly
8.0198°
Eccentric anomaly
Unknown
Mean motion
2.32311 °/min
Orbital period
154.96 mins
BSTAR
0.00021123
Loading maneuver chart data...
Loading SW <> Apogee altitude chart data...
Loading historical data...
Loading historical data...
Loading historical data...
Loading historical data...
Loading historical data...
Loading historical data...
Loading historical data...

DELTA 1 DEB Visibility forecast

Observer location: undefined°, undefined°

Span
Click to sort rows by Start time (UTC) header in descending order
Start Az.
Max El. time (UTC)
Max El. Az.
Max El.
End time (UTC)
End Az.
7 mins2025-07-03 17:55:46.802Z158.332° S2025-07-03 17:59:46.802Z219.145° SW35.168°2025-07-03 18:02:46.802Z296.782° NW
18 mins2025-07-04 07:17:46.802Z81.95° E2025-07-04 07:23:46.802Z133.529° SE26.708°2025-07-04 07:35:46.802Z184.557° SSW
16 mins2025-07-04 09:46:46.802Z34.316° NE2025-07-04 09:51:46.802Z293.024° NW42.762°2025-07-04 10:02:46.802Z236.319° WSW
|